Date,TemperatureHighF,TemperatureAvgF,TemperatureLowF,DewpointHighF,DewpointAvgF,DewpointLowF,HumidityHigh,HumidityAvg,HumidityLow,PressureMaxIn,PressureMinIn,WindSpeedMaxMPH,WindSpeedAvgMPH,GustSpeedMaxMPH,PrecipitationSumIn
2013-3-1,35,31,27,28,26,20,87,80,69,30.17,30.01,6,2,14,0.01
2013-3-2,32,28,24,24,22,19,84,76,69,30.17,30.12,8,4,17,0.00
2013-3-3,32,27,19,23,20,15,88,75,64,30.15,30.09,6,2,13,0.00
2013-3-4,37,27,18,26,20,16,92,76,53,30.19,30.07,4,1,10,0.00
2013-3-5,33,31,28,28,26,24,95,85,72,30.09,29.80,5,3,16,0.01
2013-3-6,36,31,27,31,28,25,94,88,77,30.29,29.91,7,4,15,0.26
2013-3-7,38,33,22,31,28,19,94,83,64,30.45,30.28,4,1,9,0.08
2013-3-8,41,28,14,28,21,12,92,78,58,30.54,30.42,4,0,8,0.01
2013-3-9,42,36,29,35,29,23,82,77,68,30.42,29.96,9,4,18,0.00
2013-3-10,58,48,40,49,41,34,90,76,65,29.96,29.70,9,3,14,0.09
2013-3-11,53,44,35,47,42,32,96,90,73,29.76,29.54,4,2,13,0.12
2013-3-12,38,33,30,32,29,27,93,85,69,29.98,29.76,4,1,9,0.01
2013-3-13,30,27,22,27,21,16,92,79,61,30.34,29.98,7,3,16,0.06
2013-3-14,43,31,20,30,23,16,88,74,49,30.35,30.16,3,1,8,0.01
2013-3-15,48,37,29,39,33,27,94,88,68,30.16,29.81,3,0,9,0.11
2013-3-16,38,34,30,37,32,24,95,90,78,30.12,29.68,9,3,17,0.10
2013-3-17,37,32,29,26,23,20,82,71,58,30.24,30.09,7,3,16,0.00
2013-3-18,35,31,28,34,28,21,95,87,74,30.09,29.62,7,2,17,0.04
2013-3-19,36,28,21,23,19,16,83,71,48,30.07,29.78,5,2,16,0.02
2013-3-20,28,23,19,19,15,11,89,71,59,30.08,30.03,6,2,16,0.01
2013-3-21,30,24,18,21,18,13,92,79,65,30.07,29.99,6,2,13,0.09
2013-3-22,38,27,17,24,19,15,92,73,46,30.11,30.04,5,1,11,0.02
2013-3-23,39,30,21,28,24,19,94,78,58,30.17,30.05,5,1,11,0.01
2013-3-24,37,32,28,28,26,23,84,75,63,30.06,29.63,9,3,21,0.01
2013-3-25,37,33,30,30,27,24,84,78,73,30.03,29.64,10,5,18,0.00
2013-3-26,39,34,31,33,30,27,93,84,72,30.25,30.03,7,3,17,0.02
2013-3-27,43,35,26,33,27,21,94,75,47,30.33,30.24,8,2,18,0.01
2013-3-28,48,35,23,31,24,20,91,67,37,30.36,30.31,6,1,13,0.00
2013-3-29,51,37,24,31,24,21,92,63,33,30.35,30.26,6,1,12,0.00
2013-3-30,57,41,24,36,29,21,90,64,41,30.28,29.93,4,1,14,0.00
2013-3-31,59,48,39,43,37,-100,94,68,43,29.93,29.68,9,2,20,0.01